Etusivu
METAR-TAF:

METAR-TAF

Lentoasemat :

Raton Municipal Airport (Crews Field)

Raton, New Mexico, Yhdysvallat

Leveyspiiri: 36-44-31N, Pituuspiiri: 104-39-28W, korkeus merenpinnasta: 1935 m

Tämänhetkinen sää

Tämä raportti tehtiin 16 minuuttia sitten, kello 11.53 UTC
Tuuli 6 kn pohjoisesta/koillisesta
Lämpötila 2°C
Kosteus 47%
Ilmanpaine 1011 hPa
Näkyvyys: 16.1 km
selkeää

METAR: KRTN 011153Z AUTO 02006KT 10SM CLR 02/M08 A2984 RMK AO2 SLP051 T00221083 10100 20022 57012

Aika: 06:09 (12:09 UTC)


TAF: puuttuu

Säähavainnot ja -ennusteet yli 4000 lentoasemalta (METAR- ja TAF-raportit).

Käytössä olevat sääasemat on merkitty karttaan keltaisilla ja punaisilla pisteillä.

Aseta hiiri pisteen päälle nähdäksesi sääaseman nimen.

Klikkaa sitten nähdäksesi säähavainnot ja -ennusteet.

Kartan vaihtaminen: klikkaa mustalla rastilla varustettuja vihreitä pisteitä, niin voit zoomata sisään; viivalla varustettua vihreää pistettä, niin voit zoomata ulos tai vihreitä nuolia, niin pääset viereisille kartoille.


METAR-TAF: